Bhoptimer Stats - Record Database

Kyle Records (216)

Run ID SteamID Name Map Style / Track Rank Time Jumps Strafes Sync Points Date (YYYY-MM-DD)
5165 STEAM_1:1:18624447 Kyle bhop_orbital Normal / Bonus 1 18.990s 25 62 91.62% 19.07 2019-11-28 23:01:04
5795 STEAM_1:1:18624447 Kyle bhop_metalic Segmented / Main 2 19.040s 24 49 94.33% 72.40 2019-12-12 16:52:30
6951 STEAM_1:1:18624447 Kyle bhop_legion Normal / Bonus 3 11.230s 15 41 92.09% 18.94 2019-12-25 04:02:18
9621 STEAM_1:1:18624447 Kyle bhop_rippcpie Normal / Bonus 4 9.630s 13 63 85.92% 18.49 2020-01-20 16:28:21
10273 STEAM_1:1:18624447 Kyle bhop_practicegains Normal / Main 5 11.020s 16 38 93.43% 75.73 2020-01-26 21:59:59
10276 STEAM_1:1:18624447 Kyle bhop_practicegains Low Gravity / Main 6 11.140s 9 40 92.19% 56.81 2020-01-26 22:11:01
10644 STEAM_1:1:18624447 Kyle bhop_pro_bhopper_final_fix Normal / Main 7 12.940s 17 39 92.98% 75.86 2020-02-01 12:21:06
10738 STEAM_1:1:18624447 Kyle bhop_kz_tryhardkittenz_fix Low Gravity Segmented / Bonus 8 4.730s 5 23 90.41% 11.30 2020-02-02 20:36:18
10731 STEAM_1:1:18624447 Kyle bhop_kz_tryhardkittenz_fix Normal / Bonus 9 6.190s 10 24 90.96% 18.85 2020-02-02 20:36:52
10735 STEAM_1:1:18624447 Kyle bhop_kz_tryhardkittenz_fix Low Gravity / Bonus 10 4.730s 5 26 88.59% 14.12 2020-02-02 20:38:18
10955 STEAM_1:1:18624447 Kyle bhop_cyx_jump_rev Normal / Main 11 12.160s 17 47 93.24% 75.81 2020-02-06 01:25:13
10957 STEAM_1:1:18624447 Kyle bhop_cyx_jump_rev Low Gravity / Main 12 12.430s 10 50 92.34% 56.87 2020-02-06 01:34:23
10958 STEAM_1:1:18624447 Kyle bhop_shades Normal / Bonus 13 14.990s 14 30 91.53% 19.00 2020-02-06 01:49:46
11317 STEAM_1:1:18624447 Kyle bhop_splash Normal / Main 14 24.001s 21 67 92.88% 75.88 2020-02-13 01:31:54
11318 STEAM_1:1:18624447 Kyle bhop_western Normal / Bonus 15 8.190s 10 34 90.03% 18.89 2020-02-13 01:44:39
11325 STEAM_1:1:18624447 Kyle bhop_kiitovittu Segmented / Main 16 24.191s 33 78 93.73% 76.61 2020-02-13 09:23:07
11319 STEAM_1:1:18624447 Kyle bhop_kiitovittu Normal / Main 17 24.201s 33 84 93.50% 76.61 2020-02-13 09:31:31
11347 STEAM_1:1:18624447 Kyle bhop_ametisti Normal / Bonus 18 12.430s 16 46 91.88% 16.77 2020-02-13 20:02:13
11435 STEAM_1:1:18624447 Kyle bhop_at_night Normal / Main 19 13.700s 17 45 93.00% 75.69 2020-02-15 03:33:25
11436 STEAM_1:1:18624447 Kyle bhop_strvfe05 Normal / Main 20 39.409s 49 70 95.37% 77.63 2020-02-15 04:03:07
11440 STEAM_1:1:18624447 Kyle bhop_fur Sideways / Bonus 21 10.590s 15 38 96.31% 23.91 2020-02-15 05:10:44
11443 STEAM_1:1:18624447 Kyle bhop_fur Scroll / Bonus 22 14.810s 22 52 95.30% 23.72 2020-02-15 05:17:04
11502 STEAM_1:1:18624447 Kyle bhop_pahin Normal / Main 23 13.950s 19 37 96.33% 75.93 2020-02-16 10:25:06
11503 STEAM_1:1:18624447 Kyle bhop_cyx_jump Normal / Main 24 12.190s 17 52 91.76% 74.68 2020-02-16 10:44:29
11580 STEAM_1:1:18624447 Kyle bhop_suicide_pls Normal / Main 25 26.421s 31 66 94.21% 76.38 2020-02-17 23:25:01
11591 STEAM_1:1:18624447 Kyle bhop_land_x2 Normal / Main 26 26.191s 35 64 94.08% 76.75 2020-02-18 02:52:11
11596 STEAM_1:1:18624447 Kyle bhop_alley Normal / Bonus 27 6.380s 8 30 90.80% 18.86 2020-02-18 03:18:15
11597 STEAM_1:1:18624447 Kyle bhop_alley Normal / Main 28 13.480s 18 44 89.62% 71.51 2020-02-18 03:19:47
11600 STEAM_1:1:18624447 Kyle bhop_blossom Normal / Bonus 29 14.310s 20 51 91.61% 18.89 2020-02-18 03:31:09
11668 STEAM_1:1:18624447 Kyle bhop_willneverdie Normal / Main 30 24.071s 33 63 91.77% 72.87 2020-02-19 09:44:32
11667 STEAM_1:1:18624447 Kyle bhop_willneverdie Normal / Bonus 31 4.360s 5 20 86.84% 18.52 2020-02-19 09:47:44
11923 STEAM_1:1:18624447 Kyle bhop_rm Segmented / Main 32 01:12.987m 88 168 95.25% 79.87 2020-02-23 02:03:07
11988 STEAM_1:1:18624447 Kyle bhop_biff Normal / Main 33 18.830s 26 57 93.73% 76.26 2020-02-24 02:22:50
11991 STEAM_1:1:18624447 Kyle bhop_biff Segmented / Main 34 18.540s 26 47 94.67% 76.24 2020-02-24 02:30:07
11989 STEAM_1:1:18624447 Kyle bhop_biff Normal / Bonus 35 3.110s 2 15 81.78% 18.80 2020-02-24 02:37:24
11997 STEAM_1:1:18624447 Kyle bhop_biff Segmented / Bonus 36 3.160s 2 16 87.18% 18.80 2020-02-24 02:40:41
11999 STEAM_1:1:18624447 Kyle bhop_biff Low Gravity Segmented / Bonus 37 4.070s 2 11 96.43% 11.29 2020-02-24 02:42:34
11998 STEAM_1:1:18624447 Kyle bhop_biff Low Gravity / Bonus 38 4.020s 2 16 84.61% 14.11 2020-02-24 02:42:57
12004 STEAM_1:1:18624447 Kyle bhop_mult Segmented / Main 39 17.390s 22 62 93.27% 76.16 2020-02-24 03:19:24
12166 STEAM_1:1:18624447 Kyle bhop_alt_univaje Normal / Main 40 21.870s 25 73 92.81% 74.46 2020-02-26 20:27:22
12168 STEAM_1:1:18624447 Kyle bhop_hamel Normal / Bonus 41 5.400s 8 22 91.14% 18.70 2020-02-26 20:52:50
12173 STEAM_1:1:18624447 Kyle bhop_flow_v2 Normal / Main 42 01:03.345m 85 154 93.42% 62.83 2020-02-26 21:29:56
12175 STEAM_1:1:18624447 Kyle bhop_flow_v2 Segmented / Main 43 44.959s 61 101 95.55% 78.00 2020-02-26 21:36:08
12176 STEAM_1:1:18624447 Kyle bhop_horseshit_5 Normal / Main 44 31.851s 41 88 94.83% 74.39 2020-02-26 22:06:51
12194 STEAM_1:1:18624447 Kyle bhop_uc_minecraft_beta2 Normal / Bonus 45 0.770s 1 0 100.00% 18.76 2020-02-27 12:09:54
12195 STEAM_1:1:18624447 Kyle bhop_uc_minecraft_beta2 Normal / Main 46 03:04.868m 148 261 82.48% 87.32 2020-02-27 12:17:43
12201 STEAM_1:1:18624447 Kyle bhop_easyhop Normal / Bonus 47 8.430s 12 36 90.90% 18.89 2020-02-27 12:54:28
12223 STEAM_1:1:18624447 Kyle bhop_temple_ruins Segmented / Main 48 02:19.972m 181 329 93.71% 84.33 2020-02-27 21:03:50
12224 STEAM_1:1:18624447 Kyle bhop_reservation Normal / Bonus 49 7.010s 11 24 93.63% 18.87 2020-02-27 21:11:39
12197 STEAM_1:1:18624447 Kyle bhop_2_easy Normal / Bonus 50 9.770s 13 49 89.95% 18.91 2020-02-27 21:30:22
12228 STEAM_1:1:18624447 Kyle bhop_2_easy Half-Sideways / Main 51 10.390s 14 27 97.57% 85.63 2020-02-27 21:37:00
12196 STEAM_1:1:18624447 Kyle bhop_2_easy Normal / Main 52 8.460s 12 38 91.34% 75.11 2020-02-28 08:48:05
12263 STEAM_1:1:18624447 Kyle bhop_skygarbage Segmented / Main 53 12.240s 17 53 90.16% 75.82 2020-02-28 09:03:00
12262 STEAM_1:1:18624447 Kyle bhop_skygarbage Normal / Main 54 12.220s 17 51 90.46% 75.81 2020-02-28 09:06:55
12265 STEAM_1:1:18624447 Kyle bhop_behomeby11 Segmented / Main 55 39.699s 52 110 93.87% 77.65 2020-02-28 09:17:25
12266 STEAM_1:1:18624447 Kyle bhop_behomeby11 Normal / Main 56 41.699s 54 100 93.40% 77.78 2020-02-28 09:27:01
12268 STEAM_1:1:18624447 Kyle bhop_eco_zones Segmented / Main 57 27.581s 36 80 92.64% 76.84 2020-02-28 10:00:45
12269 STEAM_1:1:18624447 Kyle bhop_eco_zones Normal / Main 58 27.041s 36 77 93.06% 76.80 2020-02-28 10:24:12
12270 STEAM_1:1:18624447 Kyle bhop_chiraq Normal / Main 59 10.950s 15 60 88.15% 73.36 2020-02-28 11:06:09
12271 STEAM_1:1:18624447 Kyle bhop_christmas Segmented / Main 60 23.941s 31 70 92.33% 76.60 2020-02-28 11:26:36
12272 STEAM_1:1:18624447 Kyle bhop_danica Normal / Main 61 18.050s 25 80 92.29% 74.10 2020-02-28 11:46:41
12273 STEAM_1:1:18624447 Kyle bhop_flatliner Normal / Bonus 62 4.850s 7 25 90.21% 18.83 2020-02-28 11:51:01
12274 STEAM_1:1:18624447 Kyle bhop_flatliner Segmented / Main 63 22.750s 29 90 88.08% 75.39 2020-02-28 12:04:11
12275 STEAM_1:1:18624447 Kyle bhop_flatliner Normal / Main 64 22.510s 28 79 91.23% 76.50 2020-02-28 12:44:31
12277 STEAM_1:1:18624447 Kyle bhop_bless Normal / Main 65 27.021s 35 101 94.36% 75.11 2020-02-28 13:31:32
12305 STEAM_1:1:18624447 Kyle bhop_horseshit_7 Normal / Main 66 5.560s 8 17 92.72% 75.37 2020-02-28 15:51:28
12308 STEAM_1:1:18624447 Kyle bhop_horseshit_7 Low Gravity / Main 67 4.780s 4 13 91.55% 51.98 2020-02-28 16:07:37
12345 STEAM_1:1:18624447 Kyle bhop_emevaelx_2 Segmented / Main 68 37.450s 49 92 95.90% 76.94 2020-02-28 22:47:27
12370 STEAM_1:1:18624447 Kyle bhop_rainbowroad_fix Normal / Main 69 01:27.430m 98 141 95.98% 80.83 2020-02-29 06:53:22
12374 STEAM_1:1:18624447 Kyle bhop_-1aaaaaflume Normal / Main 70 01:24.510m 90 220 89.51% 53.50 2020-02-29 07:06:59
12406 STEAM_1:1:18624447 Kyle bhop_stref_amazon Normal / Bonus 71 4.530s 7 29 86.87% 18.41 2020-02-29 20:04:12
12424 STEAM_1:1:18624447 Kyle bhop_hard_out Normal / Bonus 72 19.620s 27 66 94.09% 18.72 2020-02-29 22:40:49
12467 STEAM_1:1:18624447 Kyle bhop_blueblocks Normal / Bonus 73 6.970s 10 25 91.65% 18.87 2020-03-01 02:56:27
12590 STEAM_1:1:18624447 Kyle bhop_4U Segmented / Main 74 28.211s 30 84 92.59% 76.88 2020-03-02 18:11:11
12592 STEAM_1:1:18624447 Kyle bhop_4U Normal / Main 75 28.041s 30 86 91.21% 76.87 2020-03-02 18:14:16
12641 STEAM_1:1:18624447 Kyle bhop_gay Normal / Bonus 76 8.450s 12 37 94.01% 18.73 2020-03-02 23:53:57
12642 STEAM_1:1:18624447 Kyle bhop_gay Normal / Main 77 12.990s 18 52 91.08% 72.91 2020-03-03 00:04:57
12677 STEAM_1:1:18624447 Kyle bhop_persepillu_fixedd Segmented / Main 78 28.751s 40 94 92.99% 76.92 2020-03-03 14:47:44
12686 STEAM_1:1:18624447 Kyle bhop_everchanging Normal / Bonus 79 9.040s 13 41 91.58% 18.90 2020-03-03 15:23:29
12685 STEAM_1:1:18624447 Kyle bhop_everchanging Normal / Main 80 01:16.548m 102 231 91.66% 80.10 2020-03-03 15:27:00
12692 STEAM_1:1:18624447 Kyle bhop_stonework_2 Normal / Main 81 58.006s 77 167 91.72% 78.87 2020-03-03 15:34:44
12699 STEAM_1:1:18624447 Kyle bhop_paskamappi Segmented / Main 82 25.241s 35 70 93.44% 71.91 2020-03-03 17:25:56
12712 STEAM_1:1:18624447 Kyle bhop_paskamappi Low Gravity / Main 83 23.520s 20 89 90.14% 57.43 2020-03-03 17:33:26
12702 STEAM_1:1:18624447 Kyle bhop_paskamappi Normal / Main 84 25.731s 35 62 93.20% 71.45 2020-03-03 17:52:26
9622 STEAM_1:1:18624447 Kyle bhop_rippcpie Normal / Main 85 23.680s 32 52 95.54% 75.16 2020-03-03 18:58:04
12756 STEAM_1:1:18624447 Kyle bhop_stref_cairo Normal / Main 86 20.040s 27 69 92.14% 75.33 2020-03-04 11:35:22
12754 STEAM_1:1:18624447 Kyle bhop_despair Segmented / Main 87 30.991s 39 104 92.56% 77.07 2020-03-04 12:05:04
12755 STEAM_1:1:18624447 Kyle bhop_despair Normal / Main 88 31.091s 39 92 92.07% 77.07 2020-03-04 13:02:39
12764 STEAM_1:1:18624447 Kyle bhop_glxy Normal / Bonus 89 8.350s 9 21 87.54% 16.20 2020-03-04 13:50:04
12767 STEAM_1:1:18624447 Kyle bhop_speedtyomix Normal / Main 90 28.991s 40 79 93.97% 76.93 2020-03-04 14:37:41
12857 STEAM_1:1:18624447 Kyle bhop_kiwi Normal / Bonus 91 2.400s 4 13 85.39% 18.63 2020-03-05 02:09:18
12856 STEAM_1:1:18624447 Kyle bhop_kiwi Normal / Main 92 24.071s 28 99 90.95% 76.60 2020-03-05 02:35:04
11438 STEAM_1:1:18624447 Kyle bhop_fur Normal / Bonus 93 10.280s 14 49 91.58% 18.59 2020-03-05 02:51:44
12862 STEAM_1:1:18624447 Kyle bhop_strafehacker_1 Normal / Bonus 94 9.640s 13 45 91.86% 18.50 2020-03-05 04:59:57
12861 STEAM_1:1:18624447 Kyle bhop_strafehacker_1 Normal / Main 95 9.980s 14 42 93.62% 73.75 2020-03-05 05:01:12
12877 STEAM_1:1:18624447 Kyle bhop_pyxkeria Segmented / Main 96 30.621s 41 88 92.53% 77.04 2020-03-05 13:51:27
12880 STEAM_1:1:18624447 Kyle bhop_kiwi Segmented / Main 97 23.831s 28 95 92.52% 76.59 2020-03-05 14:16:47
12923 STEAM_1:1:18624447 Kyle bhop_gismo_fix Segmented / Main 98 54.077s 73 148 91.98% 78.61 2020-03-05 20:46:18
11433 STEAM_1:1:18624447 Kyle bhop_strafehacker_2 Normal / Main 99 17.410s 23 74 94.50% 74.43 2020-03-06 01:30:11
11432 STEAM_1:1:18624447 Kyle bhop_strafehacker_2 Normal / Bonus 100 17.190s 24 76 94.14% 18.99 2020-03-06 01:31:58